,,Stat6,,Stat2,,Stat8,,Stat9,,Stat10,,Wind1,,Wind1,
time,status,PA1M_AVG,status,PR1M_SUM,status,RH1M_AVG,status,SR1M_AVG,status,TA1M_AVG,status,W1dAve1m,status,W1sAve1m,
2009-03-28, 00:00:00,VALID,919.519,VALID,0,VALID,100,VALID,-0.0849042,VALID,18.9608,VALID,157,VALID,0.460547,
2009-03-28, 00:01:00,VALID,919.507,VALID,0,VALID,100,VALID,-0.0509425,VALID,18.9504,VALID,161,VALID,0.292882,
2009-03-28, 00:02:00,VALID,919.497,VALID,0,VALID,100,VALID,-0.0849042,VALID,18.9409,VALID,153,VALID,0.188953,
2009-03-28, 00:03:00,VALID,919.497,VALID,0,VALID,100,VALID,-0.0849042,VALID,18.9309,VALID,155,VALID,0.571039,
2009-03-28, 00:04:00,VALID,919.474,VALID,0,VALID,100,VALID,-0.0509425,VALID,18.908,VALID,146,VALID,0.501562,
2009-03-28, 00:05:00,VALID,919.457,VALID,0,VALID,100,VALID,-0.0849042,VALID,18.9152,VALID,148,VALID,0.37282,
2009-03-28, 00:06:00,VALID,919.445,VALID,0,VALID,100,VALID,-0.0849042,VALID,18.902,VALID,138,VALID,0.323153,
2009-03-28, 00:07:00,VALID,919.422,VALID,0,VALID,100,VALID,-0.101885,VALID,18.892,VALID,132,VALID,0.372024,
2009-03-28, 00:08:00,VALID,919.421,VALID,0,VALID,100,VALID,-0.0509425,VALID,18.9057,VALID,131,VALID,0.278232,
2009-03-28, 00:09:00,VALID,919.402,VALID,0,VALID,100,VALID,-0.0509425,VALID,18.885,VALID,149,VALID,0.135045,
2009-03-28, 00:10:00,VALID,919.387,VALID,0,VALID,100,VALID,-0.0679233,VALID,18.8855,VALID,139,VALID,0.636433,
2009-03-28, 00:11:00,VALID,919.39,VALID,0,VALID,100,VALID,-0.0509425,VALID,18.8985,VALID,147,VALID,0.761719,
2009-03-28, 00:12:00,VALID,919.365,VALID,0,VALID,100,VALID,-0.0679233,VALID,18.908,VALID,136,VALID,0.526163,
2009-03-28, 00:13:00,VALID,919.35,VALID,0,VALID,100,VALID,-0.0679233,VALID,18.9247,VALID,151,VALID,0.527699,
2009-03-28, 00:14:00,VALID,919.341,VALID,0,VALID,100,VALID,-0.101885,VALID,18.9307,VALID,137,VALID,0.817042,
2009-03-28, 00:15:00,VALID,919.332,VALID,0,VALID,100,VALID,-0.0679233,VALID,18.9506,VALID,131,VALID,0.688616,
2009-03-28, 00:16:00,VALID,919.329,VALID,0,VALID,100,VALID,-0.0339617,VALID,18.9564,VALID,133,VALID,0.176563,
2009-03-28, 00:17:00,VALID,919.333,VALID,0,VALID,100,VALID,-0.0509425,VALID,18.9499,VALID,138,VALID,0.538681,
2009-03-28, 00:18:00,VALID,919.339,VALID,0,VALID,100,VALID,-0.0339617,VALID,18.9566,VALID,145,VALID,0.333807,
2009-03-28, 00:19:00,VALID,919.347,VALID,0,VALID,100,VALID,-0.0509425,VALID,18.9666,VALID,135,VALID,0.0221946,
2009-03-28, 00:20:00,VALID,919.344,VALID,0,VALID,100,VALID,-0.0849042,VALID,18.9633,VALID,147,VALID,0.133008,
2009-03-28, 00:21:00,VALID,919.343,VALID,0,VALID,100,VALID,-0.0849042,VALID,18.9631,VALID,147,VALID,0.140439,
2009-03-28, 00:22:00,VALID,919.342,VALID,0,VALID,100,VALID,-0.0679233,VALID,18.9599,VALID,151,VALID,0,
2009-03-28, 00:23:00,VALID,919.347,VALID,0,VALID,100,VALID,-0.0339617,VALID,18.9427,VALID,161,VALID,0.093192,
2009-03-28, 00:24:00,VALID,919.342,VALID,0,VALID,100,VALID,0.0169808,VALID,18.9424,VALID,157,VALID,0.0727307,
2009-03-28, 00:25:00,VALID,919.337,VALID,0,VALID,100,VALID,0.0339617,VALID,18.929,VALID,171,VALID,0.100818,
2009-03-28, 00:26:00,VALID,919.328,VALID,0,VALID,100,VALID,0.0339617,VALID,18.939,VALID,172,VALID,0.103198,
2009-03-28, 00:27:00,VALID,919.312,VALID,0,VALID,100,VALID,0.0169808,VALID,18.933,VALID,179,VALID,0.535065,
2009-03-28, 00:28:00,VALID,919.282,VALID,0,VALID,100,VALID,0.0339617,VALID,18.923,VALID,171,VALID,0.621548,
2009-03-28, 00:29:00,VALID,919.264,VALID,0,VALID,100,VALID,0.0169808,VALID,18.9232,VALID,178,VALID,0.525112,
2009-03-28, 00:30:00,VALID,919.239,VALID,0,VALID,100,VALID,0.0339617,VALID,18.9167,VALID,183,VALID,0.332209,
2009-03-28, 00:31:00,VALID,919.211,VALID,0,VALID,100,VALID,0.0849042,VALID,18.9098,VALID,177,VALID,0.459302,
2009-03-28, 00:32:00,VALID,919.178,VALID,0,VALID,100,VALID,0.0169808,VALID,18.9267,VALID,179,VALID,0.114025,
2009-03-28, 00:33:00,VALID,919.175,VALID,0,VALID,100,VALID,0,VALID,18.929,VALID,183,VALID,0,
2009-03-28, 00:34:00,VALID,919.147,VALID,0,VALID,100,VALID,0.0169808,VALID,18.9362,VALID,186,VALID,0,
2009-03-28, 00:35:00,VALID,919.121,VALID,0,VALID,100,VALID,0.0169808,VALID,18.926,VALID,177,VALID,0,
2009-03-28, 00:36:00,VALID,919.104,VALID,0,VALID,100,VALID,0.0169808,VALID,18.9193,VALID,169,VALID,0,
2009-03-28, 00:37:00,VALID,919.089,VALID,0,VALID,100,VALID,0.0509425,VALID,18.9295,VALID,169,VALID,0,
2009-03-28, 00:38:00,VALID,919.064,VALID,0,VALID,100,VALID,0.0509425,VALID,18.9195,VALID,182,VALID,0,
2009-03-28, 00:39:00,VALID,919.034,VALID,0,VALID,100,VALID,0.0169808,VALID,18.9098,VALID,182,VALID,0,
2009-03-28, 00:40:00,VALID,919.009,VALID,0,VALID,100,VALID,0.0169808,VALID,18.9068,VALID,182,VALID,0,
2009-03-28, 00:41:00,VALID,918.984,VALID,0,VALID,100,VALID,0.0169808,VALID,18.9,VALID,182,VALID,0,
2009-03-28, 00:42:00,VALID,918.963,VALID,0,VALID,100,VALID,0.0169808,VALID,18.8998,VALID,182,VALID,0,
2009-03-28, 00:43:00,VALID,918.939,VALID,0,VALID,100,VALID,0.0339617,VALID,18.8903,VALID,182,VALID,0,
2009-03-28, 00:44:00,VALID,918.923,VALID,0,VALID,100,VALID,0.0339617,VALID,18.8947,VALID,168,VALID,0,
2009-03-28, 00:45:00,VALID,918.896,VALID,0,VALID,100,VALID,0.0339617,VALID,18.8771,VALID,143,VALID,0,
2009-03-28, 00:46:00,VALID,918.875,VALID,0,VALID,100,VALID,0.0339617,VALID,18.8676,VALID,123,VALID,0,
2009-03-28, 00:47:00,VALID,918.858,VALID,0,VALID,100,VALID,0.0169808,VALID,18.8778,VALID,121,VALID,0.00152439,
2009-03-28, 00:48:00,VALID,918.837,VALID,0,VALID,100,VALID,0.0169808,VALID,18.8841,VALID,128,VALID,0.127131,
2009-03-28, 00:49:00,VALID,918.802,VALID,0,VALID,100,VALID,0,VALID,18.907,VALID,128,VALID,0.0766006,
2009-03-28, 00:50:00,VALID,918.781,VALID,0,VALID,100,VALID,0.0169808,VALID,18.9232,VALID,128,VALID,0,
2009-03-28, 00:51:00,VALID,918.774,VALID,0,VALID,100,VALID,-0.0169808,VALID,18.9494,VALID,128,VALID,0,
2009-03-28, 00:52:00,VALID,918.755,VALID,0,VALID,100,VALID,-0.0169808,VALID,18.9367,VALID,128,VALID,0,
2009-03-28, 00:53:00,VALID,918.744,VALID,0,VALID,100,VALID,0.0169808,VALID,18.9035,VALID,128,VALID,0,
2009-03-28, 00:54:00,VALID,918.714,VALID,0,VALID,100,VALID,0.0169808,VALID,18.9068,VALID,129,VALID,0,
2009-03-28, 00:55:00,VALID,918.699,VALID,0,VALID,100,VALID,0.0169808,VALID,18.9042,VALID,125,VALID,0,
2009-03-28, 00:56:00,VALID,918.676,VALID,0,VALID,100,VALID,0.0169808,VALID,18.8873,VALID,82,VALID,0,
2009-03-28, 00:57:00,VALID,918.659,VALID,0,VALID,100,VALID,0.0339617,VALID,18.8743,VALID,75,VALID,0,
2009-03-28, 00:58:00,VALID,918.653,VALID,0,VALID,100,VALID,0,VALID,18.8653,VALID,60,VALID,0,
2009-03-28, 00:59:00,VALID,918.63,VALID,0,VALID,100,VALID,0,VALID,18.8259,VALID,60,VALID,0,
2009-03-28, 01:00:00,VALID,918.611,VALID,0,VALID,100,VALID,0,VALID,18.8067,VALID,60,VALID,0,
2009-03-28, 01:01:00,VALID,918.583,VALID,0,VALID,100,VALID,-0.0169808,VALID,18.8099,VALID,60,VALID,0,
2009-03-28, 01:02:00,VALID,918.558,VALID,0,VALID,100,VALID,-0.0169808,VALID,18.7907,VALID,61,VALID,0,
2009-03-28, 01:03:00,VALID,918.538,VALID,0,VALID,100,VALID,-0.0339617,VALID,18.7715,VALID,61,VALID,0,
2009-03-28, 01:04:00,VALID,918.509,VALID,0,VALID,100,VALID,0,VALID,18.7712,VALID,61,VALID,0,
2009-03-28, 01:05:00,VALID,918.49,VALID,0,VALID,100,VALID,-0.0169808,VALID,18.7518,VALID,61,VALID,0,
2009-03-28, 01:06:00,VALID,918.475,VALID,0,VALID,100,VALID,-0.0169808,VALID,18.7488,VALID,61,VALID,0,
2009-03-28, 01:07:00,VALID,918.459,VALID,0,VALID,100,VALID,0,VALID,18.7258,VALID,61,VALID,0,
2009-03-28, 01:08:00,VALID,918.448,VALID,0,VALID,100,VALID,-0.0509425,VALID,18.7358,VALID,61,VALID,0,
2009-03-28, 01:09:00,VALID,918.444,VALID,0,VALID,100,VALID,-0.0509425,VALID,18.7196,VALID,61,VALID,0,
2009-03-28, 01:10:00,VALID,918.426,VALID,0,VALID,100,VALID,-0.0169808,VALID,18.7198,VALID,65,VALID,0,
2009-03-28, 01:11:00,VALID,918.408,VALID,0,VALID,100,VALID,-0.0169808,VALID,18.7129,VALID,76,VALID,0,
2009-03-28, 01:12:00,VALID,918.376,VALID,0,VALID,100,VALID,-0.0339617,VALID,18.7291,VALID,80,VALID,0,
2009-03-28, 01:13:00,VALID,918.355,VALID,0,VALID,100,VALID,-0.0339617,VALID,18.7224,VALID,83,VALID,0,
2009-03-28, 01:14:00,VALID,918.317,VALID,0,VALID,100,VALID,-0.0169808,VALID,18.7388,VALID,85,VALID,0.0563227,
2009-03-28, 01:15:00,VALID,918.269,VALID,0,VALID,100,VALID,-0.0339617,VALID,18.7319,VALID,94,VALID,0.108803,
2009-03-28, 01:16:00,VALID,918.218,VALID,0,VALID,100,VALID,-0.0339617,VALID,18.7423,VALID,96,VALID,0.0174419,
2009-03-28, 01:17:00,VALID,918.17,VALID,0,VALID,100,VALID,-0.0169808,VALID,18.7353,VALID,85,VALID,0,
2009-03-28, 01:18:00,VALID,918.127,VALID,0,VALID,100,VALID,0,VALID,18.739,VALID,102,VALID,0.00130208,
2009-03-28, 01:19:00,VALID,918.107,VALID,0,VALID,100,VALID,-0.0169808,VALID,18.7258,VALID,108,VALID,0.228849,
2009-03-28, 01:20:00,VALID,918.063,VALID,0,VALID,100,VALID,0,VALID,18.7091,VALID,94,VALID,0.0440168,
2009-03-28, 01:21:00,VALID,918.048,VALID,0,VALID,100,VALID,-0.0169808,VALID,18.7094,VALID,105,VALID,0.469531,
2009-03-28, 01:22:00,VALID,918.026,VALID,0,VALID,100,VALID,-0.0169808,VALID,18.6997,VALID,107,VALID,0.821403,
2009-03-28, 01:23:00,VALID,917.99,VALID,0,VALID,100,VALID,0,VALID,18.7094,VALID,111,VALID,0.661914,
2009-03-28, 01:24:00,VALID,917.967,VALID,0,VALID,100,VALID,0,VALID,18.7129,VALID,115,VALID,0.728743,
2009-03-28, 01:25:00,VALID,917.955,VALID,0,VALID,100,VALID,-0.0169808,VALID,18.7291,VALID,122,VALID,0.312891,
2009-03-28, 01:26:00,VALID,917.947,VALID,0,VALID,100,VALID,0,VALID,18.7423,VALID,125,VALID,0.289063,
2009-03-28, 01:27:00,VALID,917.937,VALID,0,VALID,100,VALID,0,VALID,18.7453,VALID,123,VALID,0.24295,
2009-03-28, 01:28:01,VALID,917.922,VALID,0,VALID,100,VALID,-0.0169808,VALID,18.7485,VALID,127,VALID,0.0466845,
2009-03-28, 01:29:00,VALID,917.873,VALID,0,VALID,100,VALID,-0.0169808,VALID,18.7483,VALID,117,VALID,0.107376,
2009-03-28, 01:30:00,VALID,917.837,VALID,0,VALID,100,VALID,0,VALID,18.7583,VALID,116,VALID,0.102471,
2009-03-28, 01:31:00,VALID,917.808,VALID,0,VALID,100,VALID,-0.0509425,VALID,18.7455,VALID,113,VALID,0,
2009-03-28, 01:32:01,VALID,917.77,VALID,0,VALID,100,VALID,0,VALID,18.7488,VALID,105,VALID,0,
2009-03-28, 01:33:00,VALID,917.731,VALID,0,VALID,100,VALID,-0.0339617,VALID,18.7226,VALID,112,VALID,0,
2009-03-28, 01:34:00,VALID,917.713,VALID,0,VALID,100,VALID,-0.0169808,VALID,18.7194,VALID,133,VALID,0,
2009-03-28, 01:35:01,VALID,917.673,VALID,0,VALID,100,VALID,0,VALID,18.7124,VALID,140,VALID,0,
2009-03-28, 01:36:00,VALID,917.655,VALID,0,VALID,100,VALID,0,VALID,18.7091,VALID,139,VALID,0,
2009-03-28, 01:37:00,VALID,917.636,VALID,0,VALID,100,VALID,0.0169808,VALID,18.683,VALID,138,VALID,0.0745908,
2009-03-28, 01:38:00,VALID,917.638,VALID,0,VALID,100,VALID,-0.0509425,VALID,18.6844,VALID,128,VALID,0.0878906,
2009-03-28, 01:39:00,VALID,917.629,VALID,0,VALID,100,VALID,-0.101885,VALID,18.6754,VALID,131,VALID,0.0421512,
2009-03-28, 01:40:00,VALID,917.616,VALID,0,VALID,100,VALID,-0.101885,VALID,18.6691,VALID,151,VALID,0.226385,
2009-03-28, 01:41:01,VALID,917.614,VALID,0,VALID,100,VALID,-0.118866,VALID,18.6584,VALID,160,VALID,0.00726744,
2009-03-28, 01:42:00,VALID,917.607,VALID,0,VALID,100,VALID,-0.101885,VALID,18.6781,VALID,170,VALID,0.226563,
2009-03-28, 01:43:00,VALID,917.603,VALID,0,VALID,100,VALID,-0.118866,VALID,18.6853,VALID,156,VALID,0.00266768,
2009-03-28, 01:44:00,VALID,917.593,VALID,0,VALID,100,VALID,-0.101885,VALID,18.6818,VALID,179,VALID,0.00502232,
2009-03-28, 01:45:00,VALID,917.578,VALID,0,VALID,100,VALID,-0.152827,VALID,18.6716,VALID,169,VALID,0.19407,
2009-03-28, 01:46:00,VALID,917.567,VALID,0,VALID,100,VALID,-0.118866,VALID,18.6781,VALID,173,VALID,0.10766,
2009-03-28, 01:47:00,VALID,917.57,VALID,0,VALID,100,VALID,-0.0849042,VALID,18.6911,VALID,188,VALID,0.0542869,
2009-03-28, 01:48:00,VALID,917.577,VALID,0,VALID,100,VALID,-0.118866,VALID,18.6976,VALID,179,VALID,0.0024858,
2009-03-28, 01:49:00,VALID,917.566,VALID,0,VALID,100,VALID,-0.101885,VALID,18.7208,VALID,177,VALID,0.106585,
2009-03-28, 01:50:00,VALID,917.606,VALID,0,VALID,100,VALID,-0.135847,VALID,18.7298,VALID,179,VALID,0.275343,
2009-03-28, 01:51:00,VALID,917.612,VALID,0,VALID,100,VALID,-0.101885,VALID,18.743,VALID,180,VALID,0,
2009-03-28, 01:52:00,VALID,917.627,VALID,0,VALID,100,VALID,-0.118866,VALID,18.7557,VALID,170,VALID,0.413872,
2009-03-28, 01:53:00,VALID,917.606,VALID,0,VALID,100,VALID,-0.0679233,VALID,18.7847,VALID,188,VALID,0.462713,
2009-03-28, 01:54:00,VALID,917.581,VALID,0,VALID,100,VALID,0,VALID,18.7807,VALID,172,VALID,0.123698,
2009-03-28, 01:55:00,VALID,917.55,VALID,0,VALID,100,VALID,0,VALID,18.784,VALID,155,VALID,0.0615234,
2009-03-28, 01:56:01,VALID,917.502,VALID,0,VALID,100,VALID,-0.0169808,VALID,18.8069,VALID,142,VALID,0.34668,
2009-03-28, 01:57:00,VALID,917.464,VALID,0,VALID,100,VALID,0,VALID,18.8424,VALID,133,VALID,0.121761,
2009-03-28, 01:58:00,VALID,917.433,VALID,0,VALID,100,VALID,-0.0169808,VALID,18.8781,VALID,111,VALID,0,
2009-03-28, 01:59:01,VALID,917.412,VALID,0,VALID,100,VALID,0,VALID,18.8781,VALID,108,VALID,0.00117188,
2009-03-28, 02:00:00,VALID,917.387,VALID,0,VALID,100,VALID,-0.0169808,VALID,18.8549,VALID,98,VALID,0,
2009-03-28, 02:01:00,VALID,917.368,VALID,0,VALID,100,VALID,0,VALID,18.8356,VALID,72,VALID,0,
2009-03-28, 02:02:00,VALID,917.357,VALID,0,VALID,100,VALID,0,VALID,18.7962,VALID,71,VALID,0,
2009-03-28, 02:03:00,VALID,917.323,VALID,0,VALID,100,VALID,0.0339617,VALID,18.7805,VALID,87,VALID,0.0352431,
2009-03-28, 02:04:01,VALID,917.31,VALID,0,VALID,100,VALID,0.0169808,VALID,18.7638,VALID,100,VALID,0,
2009-03-28, 02:05:00,VALID,917.296,VALID,0,VALID,100,VALID,0,VALID,18.7481,VALID,80,VALID,0,
2009-03-28, 02:06:00,VALID,917.287,VALID,0,VALID,100,VALID,0,VALID,18.7186,VALID,74,VALID,0,
2009-03-28, 02:07:01,VALID,917.272,VALID,0,VALID,100,VALID,0.0339617,VALID,18.6925,VALID,49,VALID,0,
2009-03-28, 02:08:00,VALID,917.275,VALID,0,VALID,100,VALID,-0.0509425,VALID,18.6809,VALID,51,VALID,0,
2009-03-28, 02:09:00,VALID,917.277,VALID,0,VALID,100,VALID,-0.0679233,VALID,18.6723,VALID,39,VALID,0,
2009-03-28, 02:10:01,VALID,917.284,VALID,0,VALID,100,VALID,-0.0509425,VALID,18.6594,VALID,29,VALID,0,
2009-03-28, 02:11:00,VALID,917.285,VALID,0,VALID,100,VALID,-0.0849042,VALID,18.6496,VALID,28,VALID,0.00136719,
2009-03-28, 02:12:00,VALID,917.269,VALID,0,VALID,100,VALID,-0.101885,VALID,18.6334,VALID,28,VALID,0,
2009-03-28, 02:13:00,VALID,917.24,VALID,0,VALID,100,VALID,-0.0849042,VALID,18.6304,VALID,28,VALID,0,
2009-03-28, 02:14:00,VALID,917.207,VALID,0,VALID,100,VALID,-0.0849042,VALID,18.6237,VALID,36,VALID,0,
2009-03-28, 02:15:00,VALID,917.184,VALID,0,VALID,100,VALID,-0.0849042,VALID,18.6367,VALID,36,VALID,0,
2009-03-28, 02:16:00,VALID,917.149,VALID,0,VALID,100,VALID,-0.118866,VALID,18.6334,VALID,35,VALID,0,
2009-03-28, 02:17:00,VALID,917.099,VALID,0,VALID,100,VALID,-0.0849042,VALID,18.6172,VALID,29,VALID,0,
2009-03-28, 02:18:01,VALID,917.074,VALID,0,VALID,100,VALID,-0.0849042,VALID,18.6008,VALID,29,VALID,0,
2009-03-28, 02:19:01,VALID,917.058,VALID,0,VALID,100,VALID,-0.101885,VALID,18.5913,VALID,29,VALID,0,
2009-03-28, 02:20:00,VALID,917.028,VALID,0,VALID,100,VALID,-0.101885,VALID,18.5778,VALID,29,VALID,0,
2009-03-28, 02:21:01,VALID,917.008,VALID,0,VALID,100,VALID,-0.0849042,VALID,18.578,VALID,29,VALID,0,
2009-03-28, 02:22:01,VALID,917.008,VALID,0,VALID,100,VALID,-0.101885,VALID,18.5815,VALID,29,VALID,0,
2009-03-28, 02:23:00,VALID,916.991,VALID,0,VALID,100,VALID,-0.0849042,VALID,18.578,VALID,29,VALID,0,
2009-03-28, 02:24:01,VALID,916.995,VALID,0,VALID,100,VALID,-0.101885,VALID,18.5713,VALID,29,VALID,0,
2009-03-28, 02:25:01,VALID,916.984,VALID,0,VALID,100,VALID,-0.0849042,VALID,18.5848,VALID,29,VALID,0,
2009-03-28, 02:26:01,VALID,916.977,VALID,0,VALID,100,VALID,-0.0849042,VALID,18.5943,VALID,29,VALID,0,
2009-03-28, 02:27:01,VALID,916.964,VALID,0,VALID,100,VALID,-0.101885,VALID,18.5815,VALID,29,VALID,0,
2009-03-28, 02:28:01,VALID,916.948,VALID,0,VALID,100,VALID,-0.101885,VALID,18.5359,VALID,29,VALID,0,
2009-03-28, 02:29:01,VALID,916.921,VALID,0,VALID,100,VALID,-0.0849042,VALID,18.5067,VALID,29,VALID,0,
2009-03-28, 02:30:01,VALID,916.914,VALID,0,VALID,100,VALID,-0.101885,VALID,18.4835,VALID,29,VALID,0,
2009-03-28, 02:31:00,VALID,916.897,VALID,0,VALID,100,VALID,-0.0849042,VALID,18.484,VALID,29,VALID,0,
2009-03-28, 02:32:00,VALID,916.868,VALID,0,VALID,100,VALID,-0.101885,VALID,18.4745,VALID,29,VALID,0,
2009-03-28, 02:33:00,VALID,916.843,VALID,0,VALID,100,VALID,-0.0679233,VALID,18.4476,VALID,29,VALID,0,
2009-03-28, 02:34:00,VALID,916.819,VALID,0,VALID,100,VALID,-0.118866,VALID,18.461,VALID,29,VALID,0,
2009-03-28, 02:35:00,VALID,916.793,VALID,0,VALID,100,VALID,-0.0849042,VALID,18.4548,VALID,29,VALID,0,
2009-03-28, 02:36:00,VALID,916.783,VALID,0,VALID,100,VALID,-0.118866,VALID,18.4745,VALID,29,VALID,0,
2009-03-28, 02:37:00,VALID,916.768,VALID,0,VALID,100,VALID,-0.101885,VALID,18.5034,VALID,29,VALID,0,
2009-03-28, 02:38:00,VALID,916.75,VALID,0,VALID,100,VALID,-0.101885,VALID,18.5229,VALID,29,VALID,0,
2009-03-28, 02:39:00,VALID,916.746,VALID,0,VALID,100,VALID,-0.101885,VALID,18.5129,VALID,147,VALID,0,
2009-03-28, 02:40:00,VALID,916.728,VALID,0,VALID,100,VALID,-0.101885,VALID,18.4745,VALID,166,VALID,0,
2009-03-28, 02:41:00,VALID,916.728,VALID,0,VALID,100,VALID,-0.0849042,VALID,18.4715,VALID,164,VALID,0.176847,
2009-03-28, 02:42:00,VALID,916.708,VALID,0,VALID,100,VALID,-0.101885,VALID,18.4745,VALID,157,VALID,0.335756,
2009-03-28, 02:43:00,VALID,916.729,VALID,0,VALID,100,VALID,-0.101885,VALID,18.4842,VALID,166,VALID,0.268229,
2009-03-28, 02:44:00,VALID,916.721,VALID,0,VALID,100,VALID,-0.101885,VALID,18.5134,VALID,165,VALID,0.394622,
2009-03-28, 02:45:00,VALID,916.735,VALID,0,VALID,100,VALID,-0.101885,VALID,18.5426,VALID,169,VALID,0.141992,
2009-03-28, 02:46:00,VALID,916.748,VALID,0,VALID,100,VALID,-0.0849042,VALID,18.5458,VALID,155,VALID,0.00327035,
2009-03-28, 02:47:00,VALID,916.781,VALID,0,VALID,100,VALID,-0.118866,VALID,18.5424,VALID,147,VALID,0.00409226,
2009-03-28, 02:48:00,VALID,916.795,VALID,0,VALID,100,VALID,-0.0849042,VALID,18.5294,VALID,158,VALID,0.0690104,
2009-03-28, 02:49:00,VALID,916.79,VALID,0,VALID,100,VALID,-0.0849042,VALID,18.5322,VALID,162,VALID,0.178544,
2009-03-28, 02:50:00,VALID,916.793,VALID,0,VALID,100,VALID,-0.101885,VALID,18.5361,VALID,146,VALID,0.0660511,
2009-03-28, 02:51:00,VALID,916.783,VALID,0,VALID,100,VALID,-0.101885,VALID,18.5296,VALID,144,VALID,0,
2009-03-28, 02:52:00,VALID,916.773,VALID,0,VALID,100,VALID,-0.135847,VALID,18.5259,VALID,133,VALID,0,
2009-03-28, 02:53:00,VALID,916.77,VALID,0,VALID,100,VALID,-0.118866,VALID,18.5227,VALID,143,VALID,0,
2009-03-28, 02:54:00,VALID,916.756,VALID,0,VALID,100,VALID,-0.101885,VALID,18.5294,VALID,149,VALID,0,
2009-03-28, 02:55:00,VALID,916.752,VALID,0,VALID,100,VALID,-0.101885,VALID,18.5292,VALID,144,VALID,0,
2009-03-28, 02:56:00,VALID,916.743,VALID,0,VALID,100,VALID,-0.0849042,VALID,18.5361,VALID,143,VALID,0,
2009-03-28, 02:57:00,VALID,916.727,VALID,0,VALID,100,VALID,-0.101885,VALID,18.5261,VALID,144,VALID,0,
2009-03-28, 02:58:00,VALID,916.72,VALID,0,VALID,100,VALID,-0.0509425,VALID,18.5166,VALID,156,VALID,0,
2009-03-28, 02:59:00,VALID,916.709,VALID,0,VALID,100,VALID,-0.0849042,VALID,18.5264,VALID,139,VALID,0,
2009-03-28, 03:00:00,VALID,916.689,VALID,0,VALID,100,VALID,-0.118866,VALID,18.5264,VALID,139,VALID,0,
2009-03-28, 03:01:00,VALID,916.677,VALID,0,VALID,100,VALID,-0.0849042,VALID,18.5125,VALID,139,VALID,0,
2009-03-28, 03:02:00,VALID,916.67,VALID,0,VALID,100,VALID,-0.0849042,VALID,18.5329,VALID,133,VALID,0,
2009-03-28, 03:03:00,VALID,916.664,VALID,0,VALID,100,VALID,-0.118866,VALID,18.5428,VALID,128,VALID,0,
2009-03-28, 03:04:00,VALID,916.663,VALID,0,VALID,100,VALID,-0.101885,VALID,18.5586,VALID,135,VALID,0,
2009-03-28, 03:05:00,VALID,916.668,VALID,0,VALID,100,VALID,-0.101885,VALID,18.5586,VALID,141,VALID,0.129084,
2009-03-28, 03:06:00,VALID,916.656,VALID,0,VALID,100,VALID,-0.101885,VALID,18.5489,VALID,142,VALID,0.266211,
2009-03-28, 03:07:00,VALID,916.662,VALID,0,VALID,100,VALID,-0.135847,VALID,18.5261,VALID,146,VALID,0.0164062,
2009-03-28, 03:08:00,VALID,916.678,VALID,0,VALID,100,VALID,-0.0339617,VALID,18.5092,VALID,143,VALID,0.00408381,
2009-03-28, 03:09:00,VALID,916.657,VALID,0,VALID,100,VALID,0.0169808,VALID,18.4854,VALID,149,VALID,0,
2009-03-28, 03:10:00,VALID,916.652,VALID,0,VALID,100,VALID,0.0169808,VALID,18.4589,VALID,139,VALID,0.00101902,
2009-03-28, 03:11:00,VALID,916.657,VALID,0,VALID,100,VALID,-0.0169808,VALID,18.4532,VALID,146,VALID,0,
2009-03-28, 03:12:00,VALID,916.656,VALID,0,VALID,100,VALID,0.0169808,VALID,18.4562,VALID,145,VALID,0.00508721,
2009-03-28, 03:13:00,VALID,916.694,VALID,0,VALID,100,VALID,0.0169808,VALID,18.4557,VALID,159,VALID,0.136991,
2009-03-28, 03:14:00,VALID,916.692,VALID,0,VALID,100,VALID,0.0169808,VALID,18.4691,VALID,170,VALID,0.314135,
2009-03-28, 03:15:00,VALID,916.709,VALID,0,VALID,100,VALID,0.0169808,VALID,18.4462,VALID,166,VALID,0.194196,
2009-03-28, 03:16:00,VALID,916.701,VALID,0,VALID,100,VALID,0.0169808,VALID,18.4235,VALID,164,VALID,0.260603,
2009-03-28, 03:17:00,VALID,916.708,VALID,0,VALID,100,VALID,0.0339617,VALID,18.4168,VALID,159,VALID,0.122222,
2009-03-28, 03:18:00,VALID,916.701,VALID,0,VALID,100,VALID,0.0169808,VALID,18.4101,VALID,152,VALID,0.103472,
2009-03-28, 03:19:00,VALID,916.697,VALID,0,VALID,100,VALID,0.0169808,VALID,18.3971,VALID,135,VALID,0,
2009-03-28, 03:20:00,VALID,916.691,VALID,0,VALID,100,VALID,0,VALID,18.3915,VALID,120,VALID,0,
2009-03-28, 03:21:00,VALID,916.694,VALID,0,VALID,100,VALID,0,VALID,18.3941,VALID,107,VALID,0,
2009-03-28, 03:22:00,VALID,916.67,VALID,0,VALID,100,VALID,0.0169808,VALID,18.414,VALID,108,VALID,0.0219494,
2009-03-28, 03:23:00,VALID,916.678,VALID,0,VALID,100,VALID,0.0169808,VALID,18.433,VALID,100,VALID,0,
2009-03-28, 03:24:00,VALID,916.686,VALID,0,VALID,100,VALID,0,VALID,18.4659,VALID,110,VALID,0.237723,
2009-03-28, 03:25:00,VALID,916.684,VALID,0,VALID,100,VALID,0,VALID,18.5048,VALID,105,VALID,0.0580611,
2009-03-28, 03:26:00,VALID,916.672,VALID,0,VALID,100,VALID,-0.0169808,VALID,18.5152,VALID,92,VALID,0.0952035,
2009-03-28, 03:27:00,VALID,916.682,VALID,0,VALID,100,VALID,0,VALID,18.4691,VALID,91,VALID,0.0402514,
2009-03-28, 03:28:00,VALID,916.675,VALID,0,VALID,100,VALID,0,VALID,18.4659,VALID,98,VALID,0.375372,
2009-03-28, 03:29:00,VALID,916.666,VALID,0,VALID,100,VALID,0,VALID,18.4654,VALID,96,VALID,0.128348,
2009-03-28, 03:30:00,VALID,916.679,VALID,0,VALID,100,VALID,0,VALID,18.4627,VALID,106,VALID,0.285247,
2009-03-28, 03:31:00,VALID,916.672,VALID,0,VALID,100,VALID,0.0679233,VALID,18.4659,VALID,106,VALID,0.709549,
2009-03-28, 03:32:00,VALID,916.68,VALID,0,VALID,100,VALID,-0.0169808,VALID,18.4761,VALID,104,VALID,0.272195,
2009-03-28, 03:33:00,VALID,916.669,VALID,0,VALID,100,VALID,0,VALID,18.4559,VALID,102,VALID,0.109184,
2009-03-28, 03:34:00,VALID,916.677,VALID,0,VALID,100,VALID,-0.0339617,VALID,18.4499,VALID,125,VALID,0.48165,
2009-03-28, 03:35:00,VALID,916.677,VALID,0,VALID,100,VALID,0,VALID,18.4399,VALID,100,VALID,0.0866642,
2009-03-28, 03:36:00,VALID,916.672,VALID,0,VALID,100,VALID,0.0169808,VALID,18.4362,VALID,107,VALID,0.0182884,
2009-03-28, 03:37:00,VALID,916.675,VALID,0,VALID,100,VALID,0,VALID,18.423,VALID,119,VALID,0.0710747,
2009-03-28, 03:38:00,VALID,916.667,VALID,0,VALID,100,VALID,0,VALID,18.4265,VALID,126,VALID,0.676491,
2009-03-28, 03:39:00,VALID,916.667,VALID,0,VALID,100,VALID,0,VALID,18.4233,VALID,123,VALID,0.276486,
2009-03-28, 03:40:00,VALID,916.649,VALID,0,VALID,100,VALID,0,VALID,18.4395,VALID,134,VALID,0.595274,
2009-03-28, 03:41:00,VALID,916.63,VALID,0,VALID,100,VALID,0.0169808,VALID,18.4654,VALID,124,VALID,1.30885,
2009-03-28, 03:42:00,VALID,916.623,VALID,0,VALID,100,VALID,0,VALID,18.4717,VALID,117,VALID,0.531977,
2009-03-28, 03:43:00,VALID,916.607,VALID,0,VALID,100,VALID,0.0169808,VALID,18.4684,VALID,125,VALID,0.330669,
2009-03-28, 03:44:00,VALID,916.604,VALID,0,VALID,100,VALID,0.0169808,VALID,18.4589,VALID,129,VALID,0.644354,
2009-03-28, 03:45:00,VALID,916.602,VALID,0,VALID,100,VALID,0.0169808,VALID,18.4587,VALID,127,VALID,0.499256,